THOR ABLESTAR DEB, 357

Orbit data source: Space-Track

THOR ABLESTAR DEB, 357 is space debris in LEO originally from a launch on Thu, 29 Jun 1961 UTC launched from the Air Force Eastern Test Range (AFETR). Debris objects in space refer to the collection of defunct objects orbiting the Earth. Examples of debris include non-operational satellites, rocket bodies, and fragments generated from explosions, collisions, or faulty payload assembly.

Loading next visibility...
Identifier
357, 1961-015DX
Orbit
LEO
Country
Flag of USUS
Related business
Manufacturer
Unknown
Mission
Spacecraft
Bus & Motor
Unknown
Mass
Unknown
Launch date (UTC)
1961-06-29 (65 years ago)
Launch vehicle
Unknown
Launch site
Air Force Eastern Test Range (AFETR)
Object type
Payload
Rocket body
Debris
Shape & HBR
Unknown shape, 0.1 m
Radar Cross Section
Medium (>0.1 m² and <1 m²)

Expand to show TLE details & history
Last TLE update: 1 day ago

TLE from 1 day ago
0 THOR ABLESTAR DEB
1   357U 61015DX  26171.26659091  .00000465  00000-0  31116-3 0  9993
2   357  66.8073 238.4210 0015766 224.0889 135.8943 14.09585980296295
Epoch: 2026-06-20T06:23Z
TLE epoch observation values (Epoch: 2026-06-20T06:23:53.454Z)
Latitude
-0.00007°
Longitude
-126.03543°
Altitude
871.089 km
Speed
7.413 km/s
True Right ascension
15h 53m 41s
True Declination
0° 00' 00"
Sunlit
Object was in full shadow at epoch
Visualization orbit readout
Latitude
Unknown
Longitude
Unknown
Altitude
Unknown
Speed
Unknown
Apparent Right ascension
Unknown
Apparent Declination
Unknown
Sunlit
N/A
Visualization observer readout
Local Sidereal Time
01:11:08
Azimuth
Unknown
Elevation
Unknown
Doppler factor
Unknown
Orbital elements
Apogee altitude
870.577 km
Perigee altitude
847.757 km
Semi-major axis
7,237.304 km
Eccentricity
0.00158
Inclination
66.8073°
RAAN
238.421°
Arg. of periapsis
224.0889°
True anomaly
136.01986°
Mean anomaly
135.8943°
Eccentric anomaly
135.9571°
Mean motion
3.52515 °/min
Orbital period
102.12 mins
BSTAR
0.00031116
Loading maneuver chart data...
Computing Atmospheric mass density...

Documentation

Showing up to 5 results
|